Dewpoint
55 55 54 55 55 55 55 55 55 55 56 56 56 57 57 58 57 49 23 29 38 71 73 65 62 63 65 63 62 62 55 50 49 52 52 55 55 59 59 57 57 57 57 58 65
54 54 54 54 54 54 55 55 56 55 55 56 56 57 57 57 52 39 48 56 64 74 64 58 57 61 59 59 61 59 53 48 51 51 50 55 55 57 57 56 57 58 59 64 66
54 54 54 54 54 54 55 55 55 56 55 55 56 56 56 57 26 -2 70 63 69 69 60 55 56 56 55 55 57 57 52 51 49 50 50 54 55 57 57 56 57 57 61 63 65
53 53 53 54 54 54 54 54 55 55 55 55 56 56 56 52 -12 36 66 66 71 62 54 52 55 52 49 49 53 52 53 53 50 46 53 55 57 57 57 55 58 58 61 63 64
53 53 53 53 53 53 53 54 54 55 55 56 56 56 50 20 12 35 67 64 62 59 49 46 48 43 41 40 44 48 49 47 45 45 50 57 56 56 57 59 59 59 61 62 64
53 53 53 53 53 53 54 54 54 54 55 56 56 55 41 15 12 34 58 58 54 58 44 38 39 36 30 29 35 36 38 38 38 38 43 54 56 57 57 59 58 60 61 62 63
53 53 53 53 53 53 54 54 54 55 56 57 57 53 39 15 23 32 34 47 52 49 38 35 29 33 25 24 29 31 33 34 32 33 37 54 55 55 59 59 58 59 61 62 63
53 53 53 54 54 54 54 54 54 56 57 57 57 53 23 25 34 37 37 33 40 45 35 37 32 27 27 28 29 31 30 31 39 39 53 50 43 56 58 58 59 59 60 62 63
54 53 54 54 54 54 53 53 55 57 57 57 52 40 21 42 34 33 40 32 37 45 41 32 33 29 24 20 24 31 29 31 40 49 53 49 48 57 57 57 58 59 60 61 62
54 54 54 54 53 53 53 53 59 57 56 54 52 43 30 25 23 23 22 32 30 40 36 33 30 25 23 17 10 27 30 27 37 47 52 49 52 57 57 57 57 58 59 60 60
54 54 53 53 53 52 50 31 27 23 28 18 23 34 21 21 19 14 12 29 33 35 32 34 26 21 18 22 21 28 29 30 28 43 50 49 50 56 57 56 57 58 59 59 59
54 53 53 53 52 52 43 30 30 32 27 24 24 21 20 19 15 11 11 20 25 24 31 32 31 28 26 26 28 29 27 27 30 48 49 49 50 56 57 57 57 57 58 58 59
53 53 53 52 51 42 40 33 38 31 21 17 15 15 16 17 14 11 9 14 23 22 26 29 28 32 32 29 28 27 28 27 30 48 48 50 50 55 57 57 57 57 58 58 59
53 53 52 51 38 43 34 37 42 35 14 13 15 16 16 17 11 15 12 6 13 21 23 22 24 29 28 28 30 25 25 25 23 32 40 47 40 52 55 56 57 57 57 57 59
53 53 52 50 46 36 35 43 36 23 -1 17 15 16 14 14 15 14 13 2 10 18 22 20 21 24 27 29 24 26 28 26 23 25 36 46 42 47 54 55 56 56 57 57 58
53 52 51 46 47 43 43 40 24 13 2 16 16 15 13 14 15 15 11 13 11 20 22 19 22 22 26 25 25 26 23 30 34 26 23 28 41 39 50 52 54 56 57 58 58
52 51 49 46 34 44 42 24 13 7 17 14 13 14 13 14 14 16 18 20 16 6 12 17 19 21 22 25 23 24 20 21 23 23 24 29 31 34 42 50 52 54 56 58 58
50 48 49 46 45 45 27 20 13 15 13 14 13 12 13 15 14 17 18 16 21 20 9 9 12 19 21 22 24 21 24 21 26 25 25 38 29 28 38 38 48 52 54 56 57
49 42 40 38 42 36 22 16 16 14 13 12 13 14 14 14 14 16 18 19 20 23 18 14 11 21 21 21 21 21 19 21 17 22 23 26 32 37 39 40 43 46 51 53 55
43 40 37 37 39 25 19 20 16 16 12 12 13 15 13 14 14 14 17 21 20 19 25 29 19 19 21 21 19 19 20 16 19 21 22 23 27 27 35 34 39 44 47 51 54
40 32 36 34 28 24 18 17 17 16 14 14 14 14 15 14 15 15 17 21 21 19 25 30 23 21 23 22 20 18 18 18 16 18 21 22 22 35 37 37 37 42 46 48 51
40 30 39 30 28 24 20 21 25 17 17 17 18 16 15 15 15 16 17 20 21 24 22 33 26 19 17 22 21 21 20 18 14 23 20 21 21 23 33 35 37 36 48 48 49
41 39 38 32 26 25 27 23 25 20 18 17 17 18 20 17 16 18 17 23 23 21 31 32 23 18 12 18 23 22 24 20 20 23 22 16 19 25 30 37 43 46 52 54 54
39 32 34 34 33 29 28 28 26 28 25 20 20 21 20 19 23 19 18 22 25 31 38 36 28 25 12 20 21 24 22 25 19 19 19 17 21 25 29 31 31 43 48 55 57
38 34 35 31 31 31 32 33 29 28 29 28 20 19 19 20 21 21 23 23 24 32 29 31 21 23 21 21 19 18 23 22 25 22 20 19 21 23 33 39 35 39 49 55 56
39 36 34 33 33 33 35 34 31 30 30 27 27 26 24 22 23 22 26 26 25 26 26 27 24 30 21 19 23 23 27 26 25 28 26 27 28 47 51 48 48 51 52 53 56
42 39 35 33 32 33 34 34 32 32 31 31 30 29 26 28 30 30 30 30 30 28 27 25 30 27 16 24 28 25 28 30 41 47 44 31 38 52 52 53 54 57 61 57 54
Lifted_Index
15 15 15 15 15 15 14 14 14 14 14 14 13 13 13 13 12 10 10 10 7 1 -2 -1 -1 -1 -2 -3 -3 -3 -3 -2 -1 -1 -0 -0 -1 -1 -1 -0 -0 0 0 0 -0
15 15 15 15 15 15 15 14 14 14 14 14 13 13 13 12 11 9 9 8 5 0 -1 -0 -0 -1 -2 -2 -3 -3 -2 -1 -1 0 0 -0 -1 -1 -1 -0 0 0 0 -0 -1
16 16 16 16 16 15 15 15 15 14 14 14 14 13 13 11 10 8 7 6 3 0 1 2 1 0 -0 -1 -2 -2 -2 -1 -0 1 1 0 -1 -1 -1 -0 0 0 1 -0 -1
16 16 16 16 16 16 16 16 15 15 15 14 14 13 13 11 9 7 6 4 2 2 3 3 2 1 1 1 0 -1 -1 -0 1 1 1 0 -1 -1 -1 -1 -0 0 0 -0 -0
16 16 16 16 16 16 16 16 16 15 15 14 14 13 12 10 9 8 5 4 3 3 4 5 4 3 3 3 2 2 1 1 1 1 1 -0 -1 -1 -1 -1 -0 0 0 -0 -0
16 16 16 16 16 16 16 16 16 15 15 14 14 13 12 10 11 10 7 5 5 5 6 7 6 5 5 5 4 4 3 2 2 2 1 -0 -1 -1 -1 -1 -0 -0 -0 -0 -1
15 15 16 16 16 16 16 15 15 15 14 13 13 13 12 11 12 12 10 8 7 7 8 8 8 7 7 6 6 5 4 2 2 1 1 -0 -1 -1 -1 -1 -0 -0 -0 -1 -1
15 15 15 15 15 15 15 15 14 13 12 12 13 12 12 12 13 12 11 10 9 8 9 9 9 9 8 6 5 4 3 2 1 0 -1 -1 -1 -1 -1 -1 -1 -0 -0 -1 -1
14 14 14 14 14 14 14 13 12 11 11 11 11 12 12 12 12 12 11 11 10 9 8 9 9 8 7 6 4 3 2 1 1 -1 -2 -2 -1 -1 -1 -1 -1 -0 -0 -1 -1
13 13 14 14 14 13 13 12 10 9 9 9 10 10 11 11 11 11 11 11 9 8 8 8 7 7 6 5 3 3 2 1 1 -1 -2 -2 -2 -1 -1 -1 -1 -1 -0 -0 -0
11 12 13 13 13 13 12 10 9 8 8 8 8 9 10 11 11 11 11 10 9 8 7 7 6 5 5 5 4 3 2 1 1 -1 -2 -3 -2 -1 -1 -1 -1 -1 -0 -0 0
10 11 12 13 13 12 11 10 9 8 7 7 8 8 8 9 9 9 10 9 9 8 7 6 5 5 5 5 4 4 3 1 1 -0 -2 -3 -2 -2 -1 -1 -1 -1 -0 -0 0
9 10 11 12 12 12 11 10 10 9 7 6 7 7 7 7 7 7 8 9 8 8 7 6 6 6 6 5 4 4 3 2 1 -0 -1 -2 -2 -2 -1 -1 -1 -1 -1 -0 -0
9 10 10 11 11 11 10 11 10 8 5 5 6 6 6 6 6 6 7 8 8 8 7 7 6 6 6 5 4 4 3 2 1 0 -1 -1 -2 -2 -1 -1 -1 -1 -1 -1 -0
9 10 10 10 10 10 10 10 10 7 4 4 6 6 6 5 5 6 6 7 8 8 8 7 7 6 6 5 4 4 4 3 2 1 0 -0 -1 -1 -1 -1 -1 -1 -1 -1 -1
9 9 9 9 9 9 10 10 8 5 4 4 6 6 5 5 4 5 5 6 7 7 7 7 7 7 6 5 5 4 4 3 1 1 1 1 1 0 -1 -1 -1 -1 -1 -1 -1
9 9 9 9 8 9 9 7 5 4 4 5 6 5 4 4 4 4 4 4 5 6 6 7 7 7 6 6 5 5 4 2 1 0 1 2 2 2 1 -1 -1 -1 -1 -1 -1
9 9 9 9 8 8 7 5 3 4 5 6 6 5 4 4 3 3 3 3 4 5 5 5 6 6 7 6 6 5 4 2 1 1 2 3 3 3 2 1 0 -0 -0 -0 -0
9 9 9 8 8 8 6 4 4 5 6 6 6 5 4 3 3 3 3 3 4 5 5 5 5 6 7 6 6 6 5 4 2 1 2 3 3 3 2 2 1 1 1 1 1
7 7 7 8 7 7 5 4 5 6 7 7 6 5 4 4 3 3 3 3 4 5 5 5 5 6 6 6 6 6 5 4 3 2 1 2 3 2 2 2 2 2 1 1 1
6 6 6 7 6 6 5 5 6 7 8 7 6 6 5 4 4 3 3 4 4 5 5 5 5 5 5 5 6 6 6 5 3 2 2 2 3 2 2 2 2 1 1 1 1
5 6 6 6 5 5 5 6 7 8 8 8 7 7 6 5 4 4 4 4 5 5 5 5 5 4 5 5 5 5 6 5 4 3 3 3 3 3 2 1 1 1 1 1 1
6 6 6 6 5 5 5 6 7 8 8 8 8 7 7 6 5 5 5 5 5 5 4 4 4 3 4 4 5 5 5 5 5 4 3 3 4 3 2 1 1 1 0 0 1
6 6 6 6 5 5 5 6 6 7 8 8 8 8 7 7 6 6 6 6 6 6 5 4 4 3 3 4 5 5 5 5 5 4 4 4 4 3 2 1 1 1 1 -0 -1
6 6 6 6 6 6 6 6 6 7 8 8 8 8 8 7 7 7 7 7 7 7 6 5 3 3 3 4 4 5 5 5 5 5 5 5 4 3 2 1 1 1 1 -0 -1
6 6 6 6 6 7 7 7 7 7 7 7 7 8 8 7 8 8 8 8 8 8 7 5 4 3 3 4 4 4 4 4 4 4 5 5 4 3 1 0 0 -0 -1 -1 -1
7 7 7 7 7 7 7 7 7 7 7 7 7 7 8 8 8 8 9 8 8 8 7 6 4 3 2 3 4 4 4 4 3 3 4 5 4 3 1 -0 -1 -2 -2 -2 -1